Home > Weather > Lens > Past weeks

Flag for France Past Weather in Lens, Nord-Pas-de-Calais, France — Yesterday and Last 2 Weeks

Now
64 °F

Partly sunny.


Feels Like: 64 °F
Forecast: 56 / 67 °F
Wind: 7 mph from Southwest

Location: Lille Airport

Current Time: Jun 28, 2016 at 11:46:04 AM

Latest Report: Jun 28, 2016 at 11:00 AM


Visibility: N/A

Pressure: 30.04 "Hg

Humidity: 73%

Dew Point: 55 °F

Location of LensLocation

Past Weather in Lens — Graph

°F

Lens Temperature Yesterday

Maximum temperature yesterday: 70 °F (at 4:30 PM)
Minimum temperature yesterday: 55 °F (at 12:30 AM)
Average temperature yesterday: 62 °F

High & Low Weather Summary for the Past Weeks

 TemperatureHumidityPressure
High84 °F (Jun 23, 4:30 PM)100% (Jun 15, 5:00 AM)30.30 "Hg (Jun 15, 5:00 AM)
Low50 °F (Jun 16, 3:30 AM)46% (Jun 25, 5:00 PM)29.45 "Hg (Jun 15, 3:30 AM)
Average62 °F82%29.93 "Hg
* Reported Jun 13 10:00 AM — Jun 28 10:30 AM, Lens, Weather by CustomWeather, © 2016

Note: Actual official high and low records may vary slightly from our data, if they occured in-between our weather recording intervals... More about our weather records

Advertising

Lens Weather History for the Previous 24 Hours

Scroll right to see more
 ConditionsComfort  
Time TempWeatherWind HumidityBarometerVisibility
10:30 AM
Tue, Jun 28
63 °FPartly sunny.8 mph77%30.04 "HgN/A
10:00 AM61 °FMostly cloudy.7 mph83%30.07 "HgN/A
9:30 AM61 °FMostly cloudy.7 mph83%30.07 "HgN/A
9:00 AM59 °FOvercast.7 mph88%30.07 "HgN/A
8:30 AM59 °FLow clouds.7 mph88%30.07 "HgN/A
8:00 AM57 °FLow clouds.7 mph94%30.07 "HgN/A
7:30 AM57 °FOvercast.5 mph94%30.07 "HgN/A
7:00 AM55 °FOvercast.3 mph94%30.07 "HgN/A
6:30 AM55 °FPartly cloudy.3 mph94%30.07 "HgN/A
6:00 AM54 °FClear.3 mph100%30.07 "Hg10 mi
5:30 AM55 °FClear.3 mph94%30.07 "Hg10 mi
5:00 AM55 °FClear.5 mph94%30.07 "Hg10 mi
4:30 AM55 °FClear.5 mph94%30.07 "Hg10 mi
4:00 AM55 °FClear.3 mph94%30.07 "Hg10 mi
3:30 AM55 °FClear.2 mph94%30.07 "Hg10 mi
3:00 AM57 °FClear.3 mph88%30.09 "Hg10 mi
2:30 AM57 °FClear.No wind88%30.09 "Hg10 mi
2:00 AM57 °FClear.5 mph88%30.09 "Hg10 mi
1:30 AM57 °FClear.5 mph88%30.09 "Hg10 mi
1:00 AM59 °FClear.5 mph82%30.09 "Hg10 mi
12:30 AM59 °FClear.6 mph82%30.09 "Hg10 mi
12:00 AM59 °FClear.6 mph82%30.09 "Hg10 mi
11:30 PM
Mon, Jun 27
61 °FClear.6 mph83%30.09 "Hg10 mi
11:00 PM61 °FSunny.6 mph83%30.09 "Hg10 mi
10:30 PM63 °FSunny.7 mph77%30.09 "Hg10 mi
10:00 PM63 °FSunny.9 mph77%30.09 "Hg10 mi
9:30 PM64 °FSunny.8 mph73%30.09 "Hg10 mi
9:00 PM64 °FSunny.9 mph68%30.09 "Hg10 mi
8:30 PM66 °FPartly sunny.10 mph64%30.09 "HgN/A
8:00 PM66 °FPartly sunny.12 mph64%30.07 "HgN/A
7:30 PM68 °FPartly sunny.14 mph64%30.07 "HgN/A
7:00 PM68 °FPartly sunny.13 mph64%30.07 "HgN/A
6:30 PM68 °FMostly cloudy.14 mph64%30.07 "HgN/A
6:00 PM68 °FPartly sunny.13 mph69%30.07 "HgN/A
5:30 PM70 °FBroken clouds.13 mph64%30.07 "HgN/A
5:00 PM70 °FPartly sunny.14 mph64%30.07 "HgN/A
4:30 PM70 °FBroken clouds.13 mph64%30.07 "HgN/A
4:00 PM68 °FBroken clouds.14 mph69%30.07 "HgN/A
3:30 PM66 °FPartly sunny.13 mph73%30.07 "HgN/A
3:00 PM66 °FOvercast.13 mph73%30.07 "HgN/A
2:30 PM64 °FMostly cloudy.14 mph78%30.07 "HgN/A
2:00 PM63 °FOvercast.12 mph88%30.07 "HgN/A
1:30 PM63 °FMostly cloudy.14 mph83%30.07 "HgN/A
1:00 PM64 °FMostly cloudy.17 mph78%30.07 "HgN/A
12:30 PM64 °FMostly cloudy.14 mph78%30.07 "HgN/A
12:00 PM64 °FOvercast.18 mph73%30.07 "HgN/A
11:30 AM63 °FPartly sunny.13 mph83%30.07 "HgN/A
11:00 AM61 °FLow clouds.10 mph94%30.07 "HgN/A
Weather by CustomWeather, © 2016

See weather overviewHow to use our weather pages